GW0480 Weather Reports


Display with metric or nautical units.
time (UTC)temp
F
wind
direction
speed
MPH
gust
MPH
rain 1hr
in
rain 24hr
in
rain mn
in
humidity
%
barometer
mb
20260505014307 55 31 0.0 0.0 0.00 0.00 0.00 68 1009.6
20260505013803 55 53 0.0 0.0 0.00 0.00 0.00 68 1009.5
20260505013300 55 61 0.0 0.0 0.00 0.00 0.00 67 1009.5
20260505012759 55 9 1.0 1.0 0.00 0.00 0.00 67 1009.4
20260505012256 55 38 0.0 0.0 0.00 0.00 0.00 66 1009.3
20260505011751 56 30 0.0 0.0 0.00 0.00 0.00 65 1009.2
20260505011249 56 92 0.0 1.0 0.00 0.00 0.00 64 1009.1
20260505010744 56 25 0.0 0.0 0.00 0.00 0.00 65 1009.1
20260505010241 56 65 0.0 1.0 0.00 0.00 0.00 64 1009.0
20260505005737 56 215 2.0 2.0 0.00 0.00 0.00 63 1008.9
20260505005234 57 48 0.0 0.0 0.00 0.00 0.00 61 1008.9
20260505004732 57 82 1.0 2.0 0.00 0.00 0.00 61 1008.6
20260505004228 57 244 2.0 3.0 0.00 0.00 0.00 59 1008.5
20260505003725 57 108 1.0 2.0 0.00 0.00 0.00 60 1008.4
20260505003223 57 82 0.0 1.0 0.00 0.00 0.00 61 1008.2
20260505002719 57 70 1.0 1.0 0.00 0.00 0.00 60 1008.1
20260505002217 57 63 1.0 1.0 0.00 0.00 0.00 58 1008.0
20260505001714 58 49 1.0 1.0 0.00 0.00 0.00 57 1008.0
20260505001211 59 54 0.0 0.0 0.00 0.00 0.00 56 1007.8
20260505000708 60 356 0.0 1.0 0.00 0.00 0.00 53 1007.7
20260505000206 60 295 3.0 3.0 0.00 0.00 0.00 51 1007.7
20260504235702 60 85 1.0 1.0 0.00 0.00 0.00 51 1007.7
20260504235158 60 296 4.0 6.0 0.00 0.00 0.00 51 1007.7
20260504234656 60 66 1.0 1.0 0.00 0.00 0.00 51 1007.5
20260504234153 61 88 2.0 2.0 0.00 0.00 0.00 50 1007.1
20260504233649 61 22 0.0 0.0 0.00 0.00 0.00 51 1007.2
20260504233145 61 212 2.0 2.0 0.00 0.00 0.00 49 1007.1
20260504232643 62 260 6.0 8.0 0.00 0.00 0.00 49 1007.0
20260504232139 62 17 0.0 0.0 0.00 0.00 0.00 48 1007.1
20260504231636 62 19 2.0 3.0 0.00 0.00 0.00 47 1007.1
20260504231132 62 113 1.0 1.0 0.00 0.00 0.00 48 1007.1
20260504230629 63 82 1.0 1.0 0.00 0.00 0.00 47 1006.7
20260504230128 63 151 1.0 2.0 0.00 0.00 0.00 48 1006.7
20260504225626 64 263 7.0 11.0 0.00 0.00 0.00 47 1006.8
20260504225121 64 36 3.0 5.0 0.00 0.00 0.00 47 1006.7
20260504224618 64 272 5.0 6.0 0.00 0.00 0.00 46 1006.8
20260504224115 64 283 3.0 3.0 0.00 0.00 0.00 47 1006.6
20260504223612 65 281 3.0 5.0 0.00 0.00 0.00 45 1006.6
20260504223108 66 242 5.0 8.0 0.00 0.00 0.00 45 1006.4
20260504222605 66 278 3.0 5.0 0.00 0.00 0.00 43 1006.4
20260504222102 66 295 3.0 5.0 0.00 0.00 0.00 43 1006.4
20260504221559 66 243 1.0 2.0 0.00 0.00 0.00 44 1006.3
20260504221056 66 317 5.0 7.0 0.00 0.00 0.00 43 1006.5
20260504220552 66 16 3.0 3.0 0.00 0.00 0.00 43 1006.4
20260504220050 67 271 7.0 13.0 0.00 0.00 0.00 43 1006.5
20260504215546 67 291 4.0 6.0 0.00 0.00 0.00 43 1006.3
20260504215044 67 88 2.0 2.0 0.00 0.00 0.00 43 1006.4
20260504214539 67 253 5.0 8.0 0.00 0.00 0.00 43 1006.3
20260504214036 68 309 5.0 7.0 0.00 0.00 0.00 43 1006.2
20260504213532 68 105 3.0 3.0 0.00 0.00 0.00 42 1006.2
20260504213030 68 85 1.0 1.0 0.00 0.00 0.00 42 1006.1
20260504212525 69 30 1.0 2.0 0.00 0.00 0.00 41 1005.9
20260504212023 69 315 1.0 1.0 0.00 0.00 0.00 41 1006.1
20260504211520 68 283 3.0 5.0 0.00 0.00 0.00 41 1006.1
20260504211017 69 114 4.0 5.0 0.00 0.00 0.00 40 1006.1
20260504210514 69 318 4.0 6.0 0.00 0.00 0.00 39 1006.1
20260504210011 69 10 1.0 1.0 0.00 0.00 0.00 42 1006.2
20260504205508 69 82 4.0 6.0 0.00 0.00 0.00 39 1005.8
20260504205006 69 349 2.0 2.0 0.00 0.00 0.00 39 1005.9
20260504204504 70 294 5.0 7.0 0.00 0.00 0.00 37 1005.7
20260504204003 70 256 6.0 8.0 0.00 0.00 0.00 36 1005.9
20260504203500 71 255 5.0 8.0 0.00 0.00 0.00 35 1005.7
20260504202956 71 196 3.0 5.0 0.00 0.00 0.00 37 1005.8
20260504202453 71 232 6.0 7.0 0.00 0.00 0.00 33 1005.8
20260504201950 71 241 3.0 3.0 0.00 0.00 0.00 35 1005.8
20260504201447 71 231 5.0 7.0 0.00 0.00 0.00 33 1006.1
20260504200944 71 331 3.0 5.0 0.00 0.00 0.00 34 1005.8
20260504200441 70 357 2.0 3.0 0.00 0.00 0.00 34 1005.9
20260504195938 70 204 2.0 3.0 0.00 0.00 0.00 34 1005.8
20260504195433 70 43 3.0 5.0 0.00 0.00 0.00 35 1005.9
20260504194930 70 227 5.0 8.0 0.00 0.00 0.00 33 1005.9
20260504194426 72 26 4.0 5.0 0.00 0.00 0.00 33 1005.7
20260504193922 71 89 2.0 2.0 0.00 0.00 0.00 35 1006.1
20260504193420 71 339 1.0 2.0 0.00 0.00 0.00 32 1006.1
20260504192919 70 340 5.0 6.0 0.00 0.00 0.00 33 1005.8
20260504192415 70 282 2.0 2.0 0.00 0.00 0.00 34 1006.1
20260504191914 70 77 1.0 1.0 0.00 0.00 0.00 35 1005.7
20260504191412 70 230 4.0 5.0 0.00 0.00 0.00 32 1006.1
20260504190906 70 248 11.0 17.0 0.00 0.00 0.00 32 1005.9
20260504190403 70 299 5.0 7.0 0.00 0.00 0.00 35 1005.9
20260504185900 70 275 1.0 2.0 0.00 0.00 0.00 33 1006.2
20260504185357 70 284 3.0 7.0 0.00 0.00 0.00 33 1006.2
20260504184853 71 237 5.0 6.0 0.00 0.00 0.00 32 1006.2
20260504184348 71 294 4.0 7.0 0.00 0.00 0.00 32 1006.2
20260504183844 70 274 8.0 10.0 0.00 0.00 0.00 34 1006.4
20260504183342 70 338 7.0 11.0 0.00 0.00 0.00 32 1006.3
20260504182840 71 238 5.0 8.0 0.00 0.00 0.00 34 1006.5
20260504182337 70 309 1.0 1.0 0.00 0.00 0.00 35 1006.5
20260504181834 70 123 3.0 3.0 0.00 0.00 0.00 35 1006.7
20260504181331 69 278 8.0 13.0 0.00 0.00 0.00 33 1006.7
20260504180830 70 39 6.0 8.0 0.00 0.00 0.00 33 1006.8
20260504180328 70 12 3.0 5.0 0.00 0.00 0.00 33 1006.7
20260504175826 69 308 9.0 13.0 0.00 0.00 0.00 32 1006.8
20260504175322 68 268 4.0 8.0 0.00 0.00 0.00 33 1006.9
20260504174821 69 202 11.0 18.0 0.00 0.00 0.00 32 1007.0
20260504174318 69 215 3.0 6.0 0.00 0.00 0.00 32 1006.8
20260504173814 69 277 5.0 7.0 0.00 0.00 0.00 32 1006.6
20260504173311 69 213 2.0 5.0 0.00 0.00 0.00 32 1006.6
20260504172809 69 314 4.0 6.0 0.00 0.00 0.00 32 1006.6
20260504172305 69 283 3.0 6.0 0.00 0.00 0.00 33 1006.9
20260504171801 69 108 5.0 9.0 0.00 0.00 0.00 33 1006.7
20260504171258 69 308 4.0 6.0 0.00 0.00 0.00 33 1006.8
20260504170755 69 282 8.0 10.0 0.00 0.00 0.00 32 1006.8
20260504170252 68 120 3.0 5.0 0.00 0.00 0.00 34 1006.6
20260504160210 68 300 3.0 3.0 0.00 0.00 0.00 33 1008.0
20260504151138 65 339 7.0 9.0 0.00 0.00 0.00 36 1008.3
20260504150636 66 254 10.0 13.0 0.00 0.00 0.00 36 1008.3
20260504150132 65 317 4.0 5.0 0.00 0.00 0.00 36 1008.3
20260504141101 63 297 5.0 8.0 0.00 0.00 0.00 41 1009.0
20260504140558 64 357 1.0 1.0 0.00 0.00 0.00 39 1009.0
20260504130522 59 19 2.0 2.0 0.00 0.00 0.00 44 1009.4
20260504110409 40 257 2.0 2.0 0.00 0.00 0.00 87 1009.8
20260504100326 35 8 0.0 0.0 0.00 0.00 0.00 93 1009.7
20260504081720 41 358 0.0 0.0 0.00 0.00 0.00 84 1009.2
20260504081216 41 354 0.0 0.0 0.00 0.00 0.00 84 1009.3
20260504080713 41 353 0.0 0.0 0.00 0.00 0.00 84 1009.3
20260504080209 41 5 0.0 0.0 0.00 0.00 0.00 84 1009.2
20260504070137 41 1 0.0 0.0 0.00 0.00 0.00 82 1009.1
20260504050526 38 320 0.0 0.0 0.00 0.00 0.00 84 1009.2
20260504050023 38 359 0.0 0.0 0.00 0.00 0.00 85 1009.2
20260504045519 37 343 0.0 0.0 0.00 0.00 0.00 84 1009.2
20260504045015 37 343 0.0 0.0 0.00 0.00 0.00 84 1009.2
20260504044512 37 316 0.0 0.0 0.00 0.00 0.00 85 1009.3
20260504044009 37 1 0.0 0.0 0.00 0.00 0.00 86 1009.3
20260504043506 36 355 0.0 0.0 0.00 0.00 0.00 87 1009.3
20260504043004 36 305 0.0 0.0 0.00 0.00 0.00 87 1009.2
20260504042500 36 339 0.0 0.0 0.00 0.00 0.00 86 1009.3
20260504041957 36 359 0.0 0.0 0.00 0.00 0.00 86 1009.3
20260504041453 37 354 0.0 0.0 0.00 0.00 0.00 85 1009.2
20260504040949 37 9 0.0 0.0 0.00 0.00 0.00 84 1009.3
20260504040447 37 26 0.0 0.0 0.00 0.00 0.00 84 1009.1
20260504035943 37 345 0.0 0.0 0.00 0.00 0.00 84 1009.1
20260504035441 37 335 0.0 0.0 0.00 0.00 0.00 84 1009.0
20260504034937 37 351 0.0 0.0 0.00 0.00 0.00 84 1008.9
20260504034435 37 1 0.0 0.0 0.00 0.00 0.00 82 1008.8
20260504033931 37 349 0.0 0.0 0.00 0.00 0.00 81 1008.8
20260504033429 37 19 0.0 0.0 0.00 0.00 0.00 81 1008.8
20260504032926 36 344 0.0 0.0 0.00 0.00 0.00 80 1008.9
20260504032423 36 323 0.0 0.0 0.00 0.00 0.00 82 1008.9
20260504031920 35 33 0.0 0.0 0.00 0.00 0.00 86 1008.8
20260504031417 35 316 0.0 0.0 0.00 0.00 0.00 89 1008.8
20260504030913 34 5 0.0 0.0 0.00 0.00 0.00 91 1008.7
20260504030410 33 350 0.0 0.0 0.00 0.00 0.00 91 1008.5
20260504025906 32 16 0.0 0.0 0.00 0.00 0.00 90 1008.7
20260504025403 32 12 0.0 0.0 0.00 0.00 0.00 89 1008.7
20260504024900 32 6 0.0 0.0 0.00 0.00 0.00 89 1008.6
20260504024356 32 10 0.0 0.0 0.00 0.00 0.00 88 1008.5
20260504023854 33 10 0.0 0.0 0.00 0.00 0.00 87 1008.8
20260504023350 33 10 0.0 0.0 0.00 0.00 0.00 87 1008.6
20260504022846 33 11 0.0 0.0 0.00 0.00 0.00 87 1008.4
20260504022343 34 10 0.0 0.0 0.00 0.00 0.00 86 1008.5
20260504021839 34 10 0.0 0.0 0.00 0.00 0.00 85 1008.5
20260504021337 34 8 0.0 0.0 0.00 0.00 0.00 85 1008.5
20260504020834 34 4 0.0 0.0 0.00 0.00 0.00 84 1008.6
20260504020331 35 10 0.0 0.0 0.00 0.00 0.00 83 1008.5
20260504015826 35 8 0.0 0.0 0.00 0.00 0.00 82 1008.5
20260504015323 35 8 0.0 0.0 0.00 0.00 0.00 80 1008.4
20260504014819 35 14 0.0 0.0 0.00 0.00 0.00 79 1008.4